TimeMDT,TemperatureF,Dew PointF,Humidity,Sea Level PressureIn,VisibilityMPH,Wind Direction,Wind SpeedMPH,Gust SpeedMPH,PrecipitationIn,Events,Conditions,WindDirDegrees,DateUTC
12:15 AM,37.4,14.0,38,30.12,10.0,NW,10.4,-,N/A,,Clear,310,2012-10-08 06:15:00
12:35 AM,35.6,14.0,41,30.11,10.0,NW,10.4,-,N/A,,Clear,320,2012-10-08 06:35:00
12:55 AM,35.6,14.0,41,30.11,10.0,NW,10.4,-,N/A,,Clear,320,2012-10-08 06:55:00
1:15 AM,35.6,14.0,41,30.11,10.0,NW,9.2,-,N/A,,Clear,320,2012-10-08 07:15:00
1:35 AM,35.6,14.0,41,30.11,10.0,NNW,9.2,-,N/A,,Clear,330,2012-10-08 07:35:00
2:15 AM,35.6,14.0,41,30.11,10.0,NW,10.4,-,N/A,,Clear,320,2012-10-08 08:15:00
2:35 AM,35.6,14.0,41,30.11,10.0,NW,9.2,-,N/A,,Clear,310,2012-10-08 08:35:00
2:55 AM,35.6,14.0,41,30.11,10.0,NW,10.4,-,N/A,,Clear,310,2012-10-08 08:55:00
3:15 AM,33.8,14.0,44,30.11,10.0,NW,9.2,-,N/A,,Clear,310,2012-10-08 09:15:00
3:35 AM,33.8,14.0,44,30.10,10.0,NW,9.2,-,N/A,,Clear,320,2012-10-08 09:35:00
3:55 AM,33.8,14.0,44,30.09,10.0,NW,9.2,-,N/A,,Clear,310,2012-10-08 09:55:00
4:15 AM,33.8,14.0,44,30.09,10.0,NW,10.4,-,N/A,,Clear,320,2012-10-08 10:15:00
4:35 AM,33.8,14.0,44,30.08,10.0,NW,10.4,-,N/A,,Clear,310,2012-10-08 10:35:00
4:55 AM,33.8,14.0,44,30.08,10.0,WNW,8.1,-,N/A,,Clear,300,2012-10-08 10:55:00
5:15 AM,33.8,14.0,44,30.08,10.0,NW,9.2,-,N/A,,Clear,310,2012-10-08 11:15:00
5:35 AM,32.0,14.0,48,30.07,10.0,NW,11.5,-,N/A,,Clear,310,2012-10-08 11:35:00
5:55 AM,32.0,14.0,48,30.08,10.0,NW,10.4,-,N/A,,Clear,320,2012-10-08 11:55:00
6:15 AM,32.0,14.0,48,30.07,10.0,NW,10.4,-,N/A,,Clear,320,2012-10-08 12:15:00
6:35 AM,32.0,14.0,48,30.07,10.0,NW,10.4,-,N/A,,Clear,310,2012-10-08 12:35:00
6:47 AM,33.8,12.2,41,30.07,10.0,WNW,10.4,-,N/A,,Clear,300,2012-10-08 12:47:00
7:53 AM,32.0,12.2,44,30.08,10.0,WNW,9.2,-,N/A,,Clear,290,2012-10-08 13:53:00
8:47 AM,33.8,14.0,44,30.08,10.0,WNW,9.2,-,N/A,,Clear,300,2012-10-08 14:47:00
9:47 AM,39.2,14.0,36,30.08,10.0,WNW,10.4,-,N/A,,Clear,300,2012-10-08 15:47:00
10:47 AM,46.4,15.8,29,30.07,10.0,WNW,6.9,-,N/A,,Partly Cloudy,300,2012-10-08 16:47:00
11:47 AM,55.4,15.8,21,30.05,10.0,ESE,8.1,-,N/A,,Partly Cloudy,110,2012-10-08 17:47:00
12:47 PM,57.2,17.6,21,30.03,10.0,ESE,11.5,-,N/A,,Partly Cloudy,120,2012-10-08 18:47:00
1:47 PM,60.8,15.8,17,30.00,10.0,ESE,10.4,-,N/A,,Partly Cloudy,110,2012-10-08 19:47:00
3:47 PM,64.4,17.6,16,29.95,10.0,East,12.7,-,N/A,,Partly Cloudy,100,2012-10-08 21:47:00
4:50 PM,66.2,19.4,17,29.93,10.0,SE,6.9,-,N/A,,Partly Cloudy,130,2012-10-08 22:50:00
5:47 PM,64.4,14.0,14,29.93,10.0,SSE,5.8,-,N/A,,Partly Cloudy,160,2012-10-08 23:47:00
6:47 PM,59.0,15.8,19,29.92,10.0,SE,8.1,-,N/A,,Partly Cloudy,130,2012-10-09 00:47:00
7:47 PM,53.6,17.6,24,29.93,10.0,Calm,Calm,-,N/A,,Partly Cloudy,0,2012-10-09 01:47:00
8:47 PM,50.0,15.8,26,29.94,10.0,NW,5.8,-,N/A,,Partly Cloudy,310,2012-10-09 02:47:00
9:47 PM,48.2,12.2,24,29.96,10.0,WNW,10.4,-,N/A,,Clear,290,2012-10-09 03:47:00
10:47 PM,46.4,12.2,25,29.97,10.0,WNW,11.5,-,N/A,,Clear,290,2012-10-09 04:47:00
11:15 PM,44.6,14.0,29,29.98,10.0,NW,8.1,-,N/A,,Clear,320,2012-10-09 05:15:00
11:35 PM,44.6,12.2,27,29.99,10.0,NW,8.1,-,N/A,,Clear,310,2012-10-09 05:35:00
11:55 PM,42.8,12.2,29,29.99,10.0,NW,9.2,-,N/A,,Clear,310,2012-10-09 05:55:00